Location: Newark
(40.3500°N, 15.2333°E)
Time: 18:40:40
(UTC+00:00)

Altair - Pass Details

Date: 22 January 2020
Orbit: 1502 x 1682 km, 47.2° (Epoch: 25 February)

Event Time Altitude Azimuth Distance (km) Brightness Sun altitude
Rises 11:07:53 0° 276° (W) 4,928 10.1 29.9°
Reaches altitude 10° 11:11:09 10° 281° (W) 3,945 9.6 29.9°
Maximum altitude 11:21:10 59° 359° (N) 1,895 8.1 29.9°
Drops below altitude 10° 11:31:03 10° 78° (ENE) 3,890 9.5 29.7°
Sets 11:34:15 0° 83° (E) 4,856 10.0 29.7°
